New Roads False River Regiona, LA

6:44 AM CDT on October 14, 2019 (GMT -0500)
False River

Weather History for KHZR - September, 2019

Change the Weather History Date:

Sunday, September 22, 2019

  Actual Average (WUND) Record (WUND)
Temperature  
Mean Temperature 79 °F -  
Max Temperature 89 °F - - (-1)
Min Temperature 69 °F - - (-1)
Cooling Degree Days 14    
Growing Degree Days 29 (Base 50)    
Moisture  
Dew Point 69 °F    
Average Humidity 71    
Maximum Humidity 100    
Minimum Humidity 40    
Precipitation  
Precipitation 0.00 in - - ()
Sea Level Pressure  
Sea Level Pressure 30.08 in    
Wind  
Wind Speed 3 mph ()    
Max Wind Speed 10 mph    
Max Gust Speed 16 mph    
Visibility 9.9 miles    
Events      
Averages and records for this station are not official NWS values.
T = Trace of Precipitation, MM = Missing Value Source: Averaged Metar Reports

Daily Weather History Graph

Daily Weather History Graph

Search for Another Location

Airport or City:

Astronomy

Sep. 22, 2019 Rise Set
Actual Time 6:54 AM CDT 7:02 PM CDT
Civil Twilight 6:30 AM CDT 7:26 PM CDT
Nautical Twilight 6:01 AM CDT 7:54 PM CDT
Astronomical Twilight 5:33 AM CDT 8:23 PM CDT
Moon 12:08 AM CDT (9/22) 2:33 PM CDT (9/22)
Length of Visible Light 12h 56m
Length of Day
12h 08m
Last Quarter, 44% of the Moon is Illuminated
Sep 22
Last Quarter
Sep 28
New
Oct 5
First Quarter
Oct 13
Full
Oct 21
Last Quarter

Hourly Weather History & Observations

Time (CDT) Temp. Heat Index Dew Point Humidity Pressure Visibility Wind Dir Wind Speed Gust Speed Precip Events Conditions
12:17 AM 75.2 °F - 71.6 °F 89% 30.10 in 10.0 mi ESE 3.5 mph - N/A   Overcast
12:37 AM 75.2 °F - 71.6 °F 89% 30.10 in 10.0 mi Calm Calm - N/A   Overcast
12:57 AM 73.4 °F - 71.6 °F 94% 30.10 in 10.0 mi Calm Calm - N/A   Overcast
1:17 AM 73.4 °F - 73.4 °F 100% 30.09 in 10.0 mi Calm Calm - N/A   Overcast
1:58 AM 73.4 °F - 71.6 °F 94% 30.09 in 10.0 mi Calm Calm - N/A   Mostly Cloudy
2:18 AM 75.2 °F - 71.6 °F 89% 30.09 in 10.0 mi Calm Calm - N/A   Mostly Cloudy
2:37 AM 73.4 °F - 71.6 °F 94% 30.09 in 10.0 mi Calm Calm - N/A   Overcast
2:57 AM 71.6 °F - 71.6 °F 100% 30.09 in 10.0 mi Calm Calm - N/A   Scattered Clouds
3:37 AM 71.6 °F - 71.6 °F 100% 30.09 in 10.0 mi Calm Calm - N/A   Clear
4:17 AM 71.6 °F - 71.6 °F 100% 30.09 in 10.0 mi Calm Calm - N/A   Clear
6:17 AM 69.8 °F - 69.8 °F 100% 30.11 in 10.0 mi Calm Calm - N/A   Clear
7:38 AM 71.6 °F - 71.6 °F 100% 30.11 in 10.0 mi Calm Calm - N/A   Clear
7:57 AM 71.6 °F - 71.6 °F 100% 30.11 in 10.0 mi East 3.5 mph - N/A   Clear
8:17 AM 73.4 °F - 71.6 °F 94% 30.11 in 10.0 mi East 4.6 mph - N/A   Clear
8:39 AM 75.2 °F - 71.6 °F 89% 30.12 in 10.0 mi ESE 5.8 mph - N/A   Clear
8:57 AM 77.0 °F - 69.8 °F 78% 30.12 in 10.0 mi ESE 4.6 mph - N/A   Clear
9:17 AM 78.8 °F - 69.8 °F 74% 30.12 in 10.0 mi ESE 9.2 mph - N/A   Clear
9:38 AM 80.6 °F 83.9 °F 69.8 °F 70% 30.12 in 10.0 mi ESE 6.9 mph - N/A   Clear
9:57 AM 80.6 °F 83.9 °F 69.8 °F 70% 30.12 in 10.0 mi SSE 9.2 mph - N/A   Clear
10:17 AM 82.4 °F 86.3 °F 69.8 °F 66% 30.12 in 10.0 mi SE 8.1 mph - N/A   Clear
10:37 AM 82.4 °F 86.3 °F 69.8 °F 66% 30.12 in 10.0 mi SSE 8.1 mph - N/A   Clear
10:57 AM 84.2 °F 88.4 °F 69.8 °F 62% 30.12 in 10.0 mi SSE 9.2 mph - N/A   Clear
11:18 AM 84.2 °F 86.6 °F 66.2 °F 55% 30.11 in 10.0 mi SE 10.4 mph 16.1 mph N/A   Clear
11:38 AM 86.0 °F 89.4 °F 68.0 °F 55% 30.11 in 10.0 mi SSE 9.2 mph 16.1 mph N/A   Clear
11:57 AM 84.2 °F 86.6 °F 66.2 °F 55% 30.10 in 10.0 mi SSE 8.1 mph - N/A   Unknown
12:17 PM 86.0 °F 90.4 °F 69.8 °F 58% 30.10 in 10.0 mi SSE 8.1 mph - N/A   Clear
12:57 PM 87.8 °F 90.4 °F 66.2 °F 49% 30.09 in 10.0 mi SE 9.2 mph - N/A   Clear
1:17 PM 87.8 °F 90.4 °F 66.2 °F 49% 30.08 in 10.0 mi SSE 5.8 mph - N/A   Clear
1:37 PM 87.8 °F 90.4 °F 66.2 °F 49% 30.07 in 10.0 mi SE 5.8 mph - N/A   Clear
1:57 PM 89.6 °F 93.4 °F 68.0 °F 49% 30.07 in 10.0 mi ESE 8.1 mph - N/A   Clear
2:19 PM 87.8 °F 90.4 °F 66.2 °F 49% 30.05 in 10.0 mi Calm Calm - N/A   Scattered Clouds
2:37 PM 89.6 °F 93.4 °F 68.0 °F 49% 30.05 in 10.0 mi SSE 8.1 mph - N/A   Scattered Clouds
2:57 PM 89.6 °F 91.1 °F 64.4 °F 43% 30.05 in 10.0 mi South 6.9 mph - N/A   Clear
3:17 PM 89.6 °F 92.2 °F 66.2 °F 46% 30.04 in 10.0 mi SE 5.8 mph - N/A   Scattered Clouds
3:57 PM 89.6 °F 90.1 °F 62.6 °F 40% 30.03 in 10.0 mi SSE 8.1 mph - N/A   Clear
4:17 PM 89.6 °F 90.1 °F 62.6 °F 40% 30.03 in 10.0 mi South 6.9 mph - N/A   Clear
4:57 PM 89.6 °F 91.1 °F 64.4 °F 43% 30.03 in 10.0 mi SSE 8.1 mph - N/A   Clear
5:17 PM 87.8 °F 89.4 °F 64.4 °F 46% 30.03 in 10.0 mi SSE 4.6 mph - N/A   Clear
5:57 PM 87.8 °F 90.4 °F 66.2 °F 49% 30.03 in 10.0 mi SSE 3.5 mph - N/A   Clear
6:17 PM 87.8 °F 90.4 °F 66.2 °F 49% 30.04 in 10.0 mi SSE 4.6 mph - N/A   Clear
6:57 PM 84.2 °F 86.6 °F 66.2 °F 55% 30.04 in 10.0 mi SSE 3.5 mph - N/A   Clear
7:17 PM 82.4 °F 85.4 °F 68.0 °F 62% 30.04 in 10.0 mi Calm Calm - N/A   Clear
7:38 PM 80.6 °F 83.9 °F 69.8 °F 70% 30.04 in 10.0 mi Calm Calm - N/A   Clear
8:17 PM 78.8 °F - 69.8 °F 74% 30.05 in 10.0 mi SE 3.5 mph - N/A   Clear
8:37 PM 78.8 °F - 69.8 °F 74% 30.06 in 10.0 mi ESE 4.6 mph - N/A   Clear
9:17 PM 78.8 °F - 69.8 °F 74% 30.07 in 10.0 mi SE 3.5 mph - N/A   Clear
9:37 PM 78.8 °F - 71.6 °F 78% 30.08 in 10.0 mi Calm Calm - N/A   Clear
9:57 PM 78.8 °F - 71.6 °F 78% 30.08 in 7.0 mi Calm Calm - N/A   Clear
10:17 PM 77.0 °F - 71.6 °F 83% 30.09 in 10.0 mi SE 3.5 mph - N/A   Clear
10:57 PM 77.0 °F - 71.6 °F 83% - 10.0 mi SSE 3.5 mph - N/A   Clear
11:17 PM 77.0 °F - 71.6 °F 83% 30.08 in 10.0 mi SE 4.6 mph - N/A   Clear
11:37 PM 75.2 °F - 71.6 °F 89% 30.08 in 10.0 mi ESE 4.6 mph - N/A   Clear
11:57 PM 75.2 °F - 71.6 °F 89% 30.08 in 10.0 mi SE 3.5 mph - N/A   Clear